Location: *
(49.6619°S, 177.4603°W)
Time: 14:13:11
(UTC+00:00)

SJ 16-02 - Visible Passes

Search period start: 25 September 2023 00:00
Search period end: 05 October 2023 00:00
Orbit: 598 x 610 km, 75.0° (Epoch: 24 September)

Date Brightness Start Highest point End Pass type
(mag) Time Alt. Az. Time Alt. Az. Time Alt. Az.
25 Sep 3.4 08:52:28 10° S 08:54:22 19° SSE 08:54:22 19° SSE visible
25 Sep 4.2 10:30:29 10° SSW 10:31:12 14° SW 10:31:12 14° SW visible
26 Sep 3.2 09:04:50 10° S 09:07:00 24° SSE 09:07:00 24° SSE visible
26 Sep 4.4 10:43:28 10° SW 10:43:50 12° SW 10:43:50 12° SW visible
27 Sep 3.7 07:41:27 10° SSE 07:42:16 10° SE 07:42:48 10° SE visible
27 Sep 3.1 09:17:21 10° SSW 09:19:38 29° S 09:19:38 29° S visible
28 Sep 3.3 07:52:41 10° SSE 07:55:20 15° SE 07:55:27 15° SE visible
28 Sep 3.1 09:29:59 10° SSW 09:32:18 30° SSW 09:32:18 30° SSW visible
29 Sep 2.9 08:04:47 10° S 08:08:07 22° SE 08:08:07 22° SE visible
29 Sep 3.3 09:42:44 10° SSW 09:44:58 28° SW 09:44:58 28° SW visible
30 Sep 2.3 08:17:07 10° S 08:20:49 34° SE 08:20:49 34° SE visible
30 Sep 3.6 09:55:41 10° SW 09:57:40 22° WSW 09:57:40 22° WSW visible
01 Oct 3.7 06:54:21 10° SE 06:54:27 10° SE 06:54:33 10° SE visible
01 Oct 1.7 08:29:35 10° SSW 08:33:32 52° SE 08:33:32 52° SE visible
01 Oct 3.9 10:08:54 10° SW 10:10:23 16° WSW 10:10:23 16° WSW visible
02 Oct 3.3 07:04:58 10° SSE 07:07:30 15° SE 07:09:26 12° ESE visible
02 Oct 1.4 08:42:11 10° SSW 08:46:17 76° SSW 08:46:17 76° SSW visible
02 Oct 4.3 10:23:04 10° WSW 10:23:08 10° WSW 10:23:08 10° WSW visible
03 Oct 2.8 07:17:00 10° S 07:20:27 22° SE 07:22:12 17° E visible
03 Oct 1.9 08:54:54 10° SSW 08:59:03 53° W 08:59:03 53° W visible
04 Oct 2.2 07:29:18 10° S 07:33:19 33° ESE 07:35:00 24° E visible
04 Oct 2.7 09:07:48 10° SW 09:11:43 32° WNW 09:11:52 32° WNW visible
